Simultaneous Nadir Overpasses (SNOs) Predictions

Prediction of SNOs between LANDSAT-8 and NOAA-19 Satellite Orbit:

Table of predicted SNOs for the next 14.0 days since TLE Epoch: 10/19/2019
Index Date (LANDSAT-8) Time (LANDSAT-8) Lat,Lon (LANDSAT-8) SZA (LANDSAT-8 ) Date (NOAA-19) Time (NOAA-19) Lat,Lon (NOAA-19) SZA (NOAA-19 ) Distance(km) Time Diff (sec)
1 10/20/2019 02:42:20 79.18, 161.31 90.37 10/20/2019 02:41:51 79.17, 161.30 90.34 1.98 29
2 10/20/2019 03:31:48 -79.15, -31.27 89.67 10/20/2019 03:32:55 -79.16, -31.41 89.65 3.00 67
3 10/22/2019 08:16:05 -79.18,-102.18 88.85 10/22/2019 08:15:18 -79.18,-102.13 88.85 1.36 47
4 10/22/2019 09:05:31 79.17, 65.45 91.17 10/22/2019 09:06:13 79.15, 65.43 91.16 2.58 42
5 10/24/2019 13:49:48 79.20, -5.48 91.97 10/24/2019 13:48:36 79.19, -5.39 91.95 1.98 72
6 10/24/2019 14:39:16 -79.16, 161.96 88.06 10/24/2019 14:39:40 -79.16, 162.09 88.05 2.76 24
7 10/26/2019 20:12:59 79.18,-101.36 92.74 10/26/2019 20:12:58 79.17,-101.25 92.73 2.55 1
8 10/29/2019 01:46:44 -79.17, -4.84 86.53 10/29/2019 01:46:26 -79.19, -4.73 86.51 3.15 18
9 10/29/2019 02:36:10 79.17, 162.75 93.48 10/29/2019 02:37:20 79.15, 162.89 93.50 3.29 70
10 10/31/2019 07:20:27 79.19, 91.80 94.23 10/31/2019 07:19:44 79.22, 91.80 94.25 3.92 43




NCC Satellite Simultaneous Nadir Overpasses (SNOs) Prediction Service
